sat.trackr.live / text

‹ back to catalog

STARLINK-35890

NORAD 66835 · 2025-280Q

PAYLOAD ACTIVE UNKNOWN

§ Identity

Operator
Country
US
Launch date
2025-12-02
Launch site
AFWTR
Launch vehicle
Mass (kg)
RCS (m²)

Purposes: comms

External: N2YO · Heavens-Above · Gunter

§ Orbital elements

Epoch: 2026-09-20T05:10:12.643104Z

Period
96.11 min
Inclination
70.0008°
Eccentricity
0.0002784
Mean motion
14.98335875 rev/d
Perigee alt
570.1 km
Apogee alt
574.0 km
Semi-major
6,950.2 km
B*
2.1076e-4
RAAN
203.9990°
Arg perigee
272.4097°
Mean anomaly
87.6743°
Rev number
4,521

§ Raw data

STARLINK-358901 66835U 25280Q   26263.21542411  .00002423  00000+0  21076-3 0  99932 66835  70.0008 203.9990 0002784 272.4097  87.6743 14.98335875 45219

JSON: /api/v1/satellites/66835 · /tle

For live sub-satellite position, see the globe view (requires WebGL).

§ Visibility from observer

Set your observer location to see the next 7 days of passes ≥ 10°. The values pass through the URL so the page stays shareable.

No JS? Fill the form by hand. The geolocation button needs JavaScript.